"2010-12-17 00:00:00",429421,9.34,106.3,3.364,0.511,3.772,99.11153,-2.964,-1.794,44.44,0,109.4,13.62,-2.22,68.3
"2010-12-17 00:00:30",429422,9.09,107,2.756,0.828,3.802,99.10557,-2.979,-1.788,44.77,0,109.4,13.62,-2.24,69.0
"2010-12-17 00:01:00",429423,9.03,106.6,2.624,0.734,3.683,99.10387,-2.983,-1.819,45,0,109.4,13.62,-2.24,68.6
"2010-12-17 00:01:30",429424,8.93,106.6,2.612,0.747,3.788,99.10191,-2.988,-1.817,44.94,0,109.4,13.62,-2.25,68.6
"2010-12-17 00:02:00",429425,8.82,107.3,2.894,0.706,3.747,99.10359,-2.984,-1.821,44.91,0,109.4,13.62,-2.24,69.3
"2010-12-17 00:02:30",429426,8.65,109,3.01,0.814,3.728,99.10359,-2.984,-1.827,45.14,0,109.4,13.62,-2.24,71.0
"2010-12-17 00:03:00",429427,8.6,111.7,2.318,0.745,3.626,99.10555,-2.979,-1.843,45.45,0,109.4,13.62,-2.24,73.7
"2010-12-17 00:03:30",429428,8.55,110.6,2.777,0.737,3.719,99.1033,-2.985,-1.822,45.58,0,109.4,13.62,-2.24,72.6
"2010-12-17 00:04:00",429429,8.64,111.5,2.339,0.627,3.515,99.10696,-2.975,-1.854,45.55,0,109.4,13.62,-2.23,73.5
"2010-12-17 00:04:30",429430,8.58,111.2,3.354,0.725,3.526,99.10892,-2.97,-1.829,45.55,0,109.4,13.62,-2.23,73.2
"2010-12-17 00:05:00",429431,8.52,111.8,3.224,0.639,3.581,99.1078,-2.973,-1.84,45.69,0,109.4,13.62,-2.23,73.8
"2010-12-17 00:05:30",429432,8.43,112,2.753,0.74,3.629,99.11033,-2.967,-1.834,45.7,0,109.4,13.62,-2.23,74.0
"2010-12-17 00:06:00",429433,8.54,111,3.321,0.537,3.598,99.11117,-2.965,-1.835,45.74,0,109.4,13.63,-2.22,73.0
"2010-12-17 00:06:30",429434,8.49,111.2,3.381,0.712,3.658,99.10976,-2.968,-1.824,45.94,0,109.4,13.63,-2.23,73.2
"2010-12-17 00:07:00",429435,8.39,112.1,2.933,0.735,3.46,99.11089,-2.965,-1.835,46.15,0,109.4,13.63,-2.22,74.1
"2010-12-17 00:07:30",429436,8.38,113.1,2.748,0.813,3.593,99.11033,-2.967,-1.825,46.16,0,109.4,13.63,-2.23,75.1
"2010-12-17 00:08:00",429437,8.4,113,2.851,0.739,3.428,99.11285,-2.96,-1.814,46.29,0,109.4,13.63,-2.22,75.0
"2010-12-17 00:08:30",429438,8.32,113.3,2.876,0.825,3.417,99.1123,-2.962,-1.812,46.25,0,109.4,13.63,-2.22,75.3
"2010-12-17 00:09:00",429439,8.27,113.4,2.808,0.81,3.407,99.11427,-2.957,-1.813,46.17,0,109.4,13.63,-2.22,75.4
"2010-12-17 00:09:30",429440,8.24,114.2,3.341,0.736,3.468,99.11429,-2.957,-1.805,46.28,0,109.4,13.62,-2.22,76.2
"2010-12-17 00:10:00",429441,8.35,114.3,2.729,0.604,3.235,99.11598,-2.952,-1.808,45.87,0,109.4,13.62,-2.21,76.3
"2010-12-17 00:10:30",429442,8.39,113.3,2.869,0.735,3.204,99.11372,-2.958,-1.786,45.18,0,109.4,13.62,-2.22,75.3
"2010-12-17 00:11:00",429443,8.54,112.3,2.612,0.741,3.336,99.11089,-2.965,-1.811,43.7,0,109.4,13.62,-2.22,74.3
"2010-12-17 00:11:30",429444,8.68,111.9,3.364,0.643,3.48,99.1106,-2.966,-1.821,43.09,0,109.4,13.62,-2.22,73.9
"2010-12-17 00:12:00",429445,8.79,111.8,3.058,0.521,3.417,99.11117,-2.965,-1.833,43.13,0,109.4,13.62,-2.22,73.8
"2010-12-17 00:12:30",429446,8.65,112.4,3.271,0.641,3.42,99.10067,-2.992,-1.833,43.4,0,109.4,13.62,-2.25,74.4
"2010-12-17 00:13:00",429447,8.58,111.8,2.115,0.811,3.387,99.08877,-3.022,-1.842,43.5,0,109.4,13.62,-2.28,73.8
"2010-12-17 00:13:30",429448,8.61,111.8,3.326,0.681,3.603,99.08366,-3.035,-1.862,43.63,0,109.4,13.62,-2.29,73.8
"2010-12-17 00:14:00",429449,8.6,112.1,3.509,0.523,3.423,99.08138,-3.041,-1.858,44.07,0,109.4,13.62,-2.30,74.1
"2010-12-17 00:14:30",429450,8.36,112.6,3.358,0.739,3.406,99.0811,-3.041,-1.856,44.33,0,109.4,13.63,-2.30,74.6
"2010-12-17 00:15:00",429451,8.21,113.3,2.922,0.734,3.403,99.08054,-3.043,-1.864,44.58,0,109.4,13.63,-2.30,75.3
"2010-12-17 00:15:30",429452,8.13,113.9,2.593,0.654,3.497,99.08082,-3.042,-1.871,44.91,0,109.4,13.63,-2.30,75.9
"2010-12-17 00:16:00",429453,8.09,113.3,2.143,0.626,3.371,99.08195,-3.039,-1.862,45.04,0,109.4,13.63,-2.30,75.3
"2010-12-17 00:16:30",429454,7.98,112.7,3.364,0.653,3.407,99.08421,-3.033,-1.861,45.32,0,109.4,13.63,-2.29,74.7
"2010-12-17 00:17:00",429455,8.01,112.2,3.355,0.645,3.401,99.08959,-3.02,-1.868,45.67,0,109.4,13.63,-2.28,74.2
"2010-12-17 00:17:30",429456,7.962,111.5,3.436,0.641,3.574,99.09412,-3.008,-1.856,46,0,109.4,13.63,-2.27,73.5
"2010-12-17 00:18:00",429457,8.05,111.1,2.587,0.626,3.345,99.0981,-2.998,-1.849,45.26,0,109.4,13.63,-2.26,73.1
"2010-12-17 00:18:30",429458,7.988,110.2,2.652,0.737,3.488,99.09695,-3.001,-1.839,44.55,0,109.4,13.63,-2.26,72.2
"2010-12-17 00:19:00",429459,8.12,108.5,3.855,0.519,3.379,99.09441,-3.007,-1.846,44.11,0,109.4,13.63,-2.27,70.5
"2010-12-17 00:19:30",429460,7.957,108.5,2.859,0.819,3.556,99.09072,-3.017,-1.861,44.25,0,109.4,13.63,-2.28,70.5
"2010-12-17 00:20:00",429461,8.01,108.6,2.714,0.713,3.431,99.08987,-3.019,-1.855,44.39,0,109.4,13.63,-2.28,70.6
"2010-12-17 00:20:30",429462,7.968,108.2,2.804,0.739,3.363,99.08817,-3.023,-1.854,44.57,0,109.4,13.63,-2.28,70.2
"2010-12-17 00:21:00",429463,7.959,109.2,3.015,0.741,3.344,99.09045,-3.018,-1.864,45.11,0,109.4,13.63,-2.28,71.2
"2010-12-17 00:21:30",429464,7.917,110.1,2.368,0.746,3.524,99.0927,-3.012,-1.861,45.68,0,109.4,13.63,-2.27,72.1
"2010-12-17 00:22:00",429465,7.911,110.1,2.825,0.659,3.376,99.09724,-3,-1.853,45.72,0,109.4,13.63,-2.26,72.1
"2010-12-17 00:22:30",429466,7.841,109.4,2.676,0.753,3.362,99.1012,-2.99,-1.827,45.97,0,109.4,13.63,-2.25,71.4
"2010-12-17 00:23:00",429467,7.874,109,2.835,0.753,3.342,99.10404,-2.983,-1.842,45.69,0,109.4,13.64,-2.24,71.0
"2010-12-17 00:23:30",429468,7.775,109.9,2.751,0.746,3.459,99.11141,-2.964,-1.834,46.09,0,109.4,13.63,-2.22,71.9
"2010-12-17 00:24:00",429469,7.9,108.7,3.107,0.475,3.386,99.11594,-2.953,-1.813,46.18,0,109.4,13.64,-2.21,70.7
"2010-12-17 00:24:30",429470,7.814,107,3.383,0.638,3.391,99.11594,-2.953,-1.813,46.19,0,109.4,13.64,-2.21,69.0
"2010-12-17 00:25:00",429471,7.802,106.5,2.881,0.744,3.431,99.11594,-2.953,-1.811,46.07,0,109.4,13.64,-2.21,68.5
"2010-12-17 00:25:30",429472,8.05,105,4.443,0.508,3.721,99.11594,-2.953,-1.821,45.4,0,109.4,13.63,-2.21,67.0
"2010-12-17 00:26:00",429473,8.18,105.9,3.747,0.644,3.419,99.11452,-2.956,-1.813,43.91,0,109.4,13.63,-2.21,67.9
"2010-12-17 00:26:30",429474,8.35,106.7,2.662,0.617,3.31,99.09724,-3,-1.827,43.02,0,109.4,13.63,-2.26,68.7
"2010-12-17 00:27:00",429475,8.41,106.3,3.63,0.652,3.364,99.08846,-3.023,-1.827,42.71,0,109.4,13.63,-2.28,68.3
"2010-12-17 00:27:30",429476,8.58,106.1,3.727,0.652,3.407,99.08194,-3.039,-1.847,42.17,0,109.4,13.63,-2.30,68.1
"2010-12-17 00:28:00",429477,8.68,107.1,3.271,0.611,3.498,99.08194,-3.039,-1.855,41.82,0,109.4,13.63,-2.30,69.1
"2010-12-17 00:28:30",429478,8.58,106.6,3.694,0.643,3.485,99.07996,-3.044,-1.871,41.78,0,109.4,13.63,-2.30,68.6
"2010-12-17 00:29:00",429479,8.47,106,3.357,0.629,3.394,99.06636,-3.079,-1.888,41.69,0,109.4,13.63,-2.34,68.0
"2010-12-17 00:29:30",429480,8.56,106.7,2.421,0.503,3.546,99.05559,-3.106,-1.903,41.61,0,109.4,13.63,-2.37,68.7
"2010-12-17 00:30:00",429481,8.42,106.7,3.298,0.644,3.58,99.04935,-3.122,-1.928,41.72,0,109.4,13.63,-2.38,68.7
"2010-12-17 00:30:30",429482,8.38,107.2,3.225,0.657,3.504,99.04794,-3.126,-1.917,41.96,0,109.4,13.63,-2.38,69.2
"2010-12-17 00:31:00",429483,8.29,107.3,2.728,0.728,3.349,99.04794,-3.126,-1.94,42.15,0,109.4,13.64,-2.38,69.3
"2010-12-17 00:31:30",429484,8.24,106.7,2.517,0.735,3.51,99.04794,-3.126,-1.951,42.24,0,109.4,13.64,-2.38,68.7
"2010-12-17 00:32:00",429485,8.13,107.8,1.555,0.74,3.392,99.04794,-3.126,-1.948,42.62,0,109.3,13.64,-2.38,69.8
"2010-12-17 00:32:30",429486,8.12,106.2,3.3,0.639,3.426,99.04794,-3.126,-1.933,42.69,0,109.4,13.64,-2.38,68.2
"2010-12-17 00:33:00",429487,8.14,105.5,3.794,0.541,3.49,99.04794,-3.126,-1.941,42.71,0,109.4,13.64,-2.38,67.5
"2010-12-17 00:33:30",429488,8.22,104.5,3.452,0.66,3.453,99.04822,-3.125,-1.96,42.44,0,109.4,13.64,-2.38,66.5
"2010-12-17 00:34:00",429489,8.34,104.2,2.623,0.636,3.181,99.04822,-3.125,-1.939,42.24,0,109.3,13.65,-2.38,66.2
"2010-12-17 00:34:30",429490,8.28,103.9,3.32,0.653,3.17,99.04822,-3.125,-1.94,42.18,0,109.4,13.64,-2.38,65.9
"2010-12-17 00:35:00",429491,8.36,103.9,2.771,0.735,3.034,99.04794,-3.126,-1.941,42.11,0,109.4,13.65,-2.38,65.9
"2010-12-17 00:35:30",429492,8.43,103.7,2.899,0.731,3.157,99.04794,-3.126,-1.962,42.11,0,109.4,13.65,-2.38,65.7
"2010-12-17 00:36:00",429493,8.61,103.4,3.309,0.505,3.056,99.04878,-3.124,-1.966,42.13,0,109.3,13.65,-2.38,65.4
"2010-12-17 00:36:30",429494,8.6,102.8,3.341,0.648,3.019,99.0465,-3.129,-1.959,42.11,0,109.4,13.65,-2.39,64.8
"2010-12-17 00:37:00",429495,8.55,103,2.912,0.745,2.92,99.0281,-3.176,-1.987,42.11,0,109.4,13.65,-2.44,65.0
"2010-12-17 00:37:30",429496,8.61,103,3.258,0.648,3.14,99.02298,-3.189,-1.986,42.25,0,109.4,13.65,-2.45,65.0
"2010-12-17 00:38:00",429497,8.79,102.6,3.91,0.358,3.066,99.02013,-3.197,-1.992,42.47,0,109.3,13.65,-2.46,64.6
"2010-12-17 00:38:30",429498,8.7,102.5,2.833,0.737,2.891,99.0173,-3.204,-1.999,42.56,0,109.4,13.65,-2.46,64.5
"2010-12-17 00:39:00",429499,8.77,102.5,2.739,0.751,2.877,99.01815,-3.202,-2.007,42.62,0,109.4,13.65,-2.46,64.5
"2010-12-17 00:39:30",429500,8.87,101.6,2.619,0.734,2.97,99.02039,-3.196,-2.017,42.66,0,109.4,13.65,-2.46,63.6
"2010-12-17 00:40:00",429501,9.02,102,1.534,0.719,2.807,99.02096,-3.195,-2.02,42.68,0,109.3,13.65,-2.45,64.0
"2010-12-17 00:40:30",429502,9.23,101.4,3.185,0.638,2.899,99.02235,-3.191,-2.023,42.51,0,109.4,13.65,-2.45,63.4
"2010-12-17 00:41:00",429503,9.35,101.1,3.587,0.575,2.885,99.02487,-3.185,-2.021,42.24,0,109.4,13.65,-2.44,63.1
"2010-12-17 00:41:30",429504,9.4,101,3.354,0.635,3.122,99.01241,-3.216,-2.04,42.24,0,109.4,13.64,-2.48,63.0
"2010-12-17 00:42:00",429505,9.51,101.3,2.553,0.618,3.03,99.00925,-3.224,-2.048,42.15,0,109.4,13.64,-2.48,63.3
"2010-12-17 00:42:30",429506,9.37,101.2,2.875,0.708,2.974,99.00077,-3.246,-2.049,42.2,0,109.4,13.64,-2.51,63.2
"2010-12-17 00:43:00",429507,9.41,101.2,2.883,0.732,3,99.00185,-3.243,-2.059,42.25,0,109.4,13.64,-2.50,63.2
"2010-12-17 00:43:30",429508,9.46,101.3,2.692,0.736,3.154,98.99648,-3.257,-2.062,42.09,0,109.4,13.64,-2.52,63.3
"2010-12-17 00:44:00",429509,9.57,100.5,2.805,0.636,3.027,98.99817,-3.253,-2.083,41.96,0,109.3,13.64,-2.51,62.5
"2010-12-17 00:44:30",429510,9.55,100.8,3.464,0.65,3.172,99.00154,-3.244,-2.067,41.96,0,109.4,13.64,-2.50,62.8
"2010-12-17 00:45:00",429511,9.55,100.5,2.777,0.729,3.082,99.00125,-3.245,-2.086,41.78,0,109.4,13.64,-2.50,62.5
"2010-12-17 00:45:30",429512,9.63,100.9,3.183,0.65,3.306,99.00294,-3.24,-2.108,41.48,0,109.4,13.64,-2.50,62.9
"2010-12-17 00:46:00",429513,9.84,100.1,3.803,0.305,3.239,99.00154,-3.244,-2.098,41.08,0,109.3,13.64,-2.50,62.1
"2010-12-17 00:46:30",429514,9.62,100.7,2.659,0.764,3.143,99.00237,-3.242,-2.101,40.82,0,109.4,13.64,-2.50,62.7
"2010-12-17 00:47:00",429515,9.59,100.7,2.62,0.748,3.196,99.00097,-3.245,-2.105,40.85,0,109.4,13.65,-2.50,62.7
"2010-12-17 00:47:30",429516,9.66,100.1,3.34,0.525,3.423,98.99895,-3.251,-2.116,41.11,0,109.4,13.65,-2.51,62.1
"2010-12-17 00:48:00",429517,9.72,100.4,3.178,0.521,3.248,98.99358,-3.264,-2.11,41.25,0,109.3,13.65,-2.52,62.4
"2010-12-17 00:48:30",429518,9.64,100.1,2.562,0.728,3.099,98.99187,-3.269,-2.11,41.07,0,109.3,13.65,-2.53,62.1
"2010-12-17 00:49:00",429519,9.76,99.3,3.331,0.62,3.18,98.99216,-3.268,-2.115,40.94,0,109.4,13.65,-2.53,61.3
"2010-12-17 00:49:30",429520,9.87,98.6,4.189,0.436,3.452,98.98791,-3.279,-2.111,40.48,0,109.3,13.65,-2.54,60.6
"2010-12-17 00:50:00",429521,9.85,99.6,1.511,0.723,3.144,98.98563,-3.285,-2.144,40.4,0,109.3,13.65,-2.54,61.6
"2010-12-17 00:50:30",429522,9.94,96.8,3.299,0.527,3.258,98.9845,-3.287,-2.111,40.21,0,109.4,13.65,-2.55,58.8
"2010-12-17 00:51:00",429523,9.77,96.4,2.954,0.722,3.334,98.98052,-3.298,-2.124,39.98,0,109.4,13.65,-2.56,58.4
"2010-12-17 00:51:30",429524,9.79,96.4,3.626,0.545,3.461,98.97826,-3.303,-2.136,40.05,0,109.3,13.65,-2.56,58.4
"2010-12-17 00:52:00",429525,9.79,94.6,3.336,0.478,3.551,98.97826,-3.303,-2.149,40.15,0,109.3,13.65,-2.56,56.6
"2010-12-17 00:52:30",429526,9.67,94.7,2.637,0.741,3.371,98.97797,-3.304,-2.137,40.14,0,109.3,13.65,-2.56,56.7
"2010-12-17 00:53:00",429527,9.93,93.7,2.796,0.749,3.328,98.97655,-3.308,-2.154,39.91,0,109.4,13.65,-2.57,55.7
"2010-12-17 00:53:30",429528,10.14,93.8,2.659,0.757,3.529,98.97175,-3.32,-2.158,39.59,0,109.3,13.65,-2.58,55.8
"2010-12-17 00:54:00",429529,10.2,94.2,2.595,0.717,3.443,98.97089,-3.322,-2.152,39.68,0,109.3,13.65,-2.58,56.2
"2010-12-17 00:54:30",429530,10.32,92.1,3.026,0.79,3.414,98.97118,-3.321,-2.153,39.45,0,109.3,13.65,-2.58,54.1
"2010-12-17 00:55:00",429531,10.73,90.2,3.042,0.749,3.543,98.97118,-3.321,-2.158,39.61,0,109.3,13.65,-2.58,52.2
"2010-12-17 00:55:30",429532,10.69,91.3,3.14,0.686,3.757,98.97089,-3.322,-2.175,39.74,0,109.3,13.65,-2.58,53.3
"2010-12-17 00:56:00",429533,10.91,91,2.588,0.636,3.68,98.96607,-3.334,-2.171,40.26,0,109.3,13.65,-2.59,53.0
"2010-12-17 00:56:30",429534,10.93,89.9,3.658,0.561,3.847,98.95219,-3.37,-2.172,40.26,0,109.4,13.65,-2.63,51.9
"2010-12-17 00:57:00",429535,10.95,90.7,3.4,0.651,3.76,98.94539,-3.387,-2.187,40.17,0,109.4,13.65,-2.65,52.7
"2010-12-17 00:57:30",429536,11.34,92.5,3.883,0.805,3.3,98.94028,-3.4,-2.218,39.92,0,109.4,13.65,-2.66,54.5
"2010-12-17 00:58:00",429537,12.23,89.3,4.662,0.767,2.908,98.91931,-3.453,-2.241,41.41,0,109.3,13.65,-2.71,51.3
"2010-12-17 00:58:30",429538,12.3,88.7,3.895,0.957,3.134,98.88926,-3.53,-2.277,42.06,0,109.3,13.65,-2.79,50.7
"2010-12-17 00:59:00",429539,12.56,86.9,3.682,0.682,3.102,98.85469,-3.618,-2.341,43.07,0,109.4,13.65,-2.88,48.9
"2010-12-17 00:59:30",429540,11.99,89.8,3.406,0.706,3.442,98.82464,-3.695,-2.409,43.9,0,109.3,13.64,-2.96,51.8
"2010-12-17 01:00:00",429541,12.16,88.5,3.342,0.468,3.305,98.79545,-3.769,-2.457,44.63,0,109.3,13.65,-3.03,50.5
"2010-12-17 01:00:30",429542,11.82,89.7,4.177,0.62,3.483,98.76768,-3.84,-2.51,44.52,0,109.3,13.65,-3.10,51.7
"2010-12-17 01:01:00",429543,11.74,87.1,3.489,0.641,3.19,98.74898,-3.887,-2.564,46.74,0,109.3,13.65,-3.15,49.1
"2010-12-17 01:01:30",429544,11.15,89.3,3.854,0.662,3.549,98.72942,-3.937,-2.624,46.86,0,109.3,13.65,-3.20,51.3
"2010-12-17 01:02:00",429545,11.7,87.5,3.185,0.554,3.146,98.70589,-3.997,-2.671,47.36,0,109.3,13.65,-3.26,49.5
"2010-12-17 01:02:30",429546,11.54,87.4,3.984,0.548,3.259,98.69087,-4.035,-2.729,49.27,0,109.3,13.65,-3.30,49.4
"2010-12-17 01:03:00",429547,11.83,89.6,3.98,0.745,3.399,98.66706,-4.096,-2.767,49.25,0,109.3,13.65,-3.36,51.6
"2010-12-17 01:03:30",429548,11.53,90.4,3.509,0.619,3.3,98.64297,-4.157,-2.799,50.86,0,109.3,13.65,-3.42,52.4
"2010-12-17 01:04:00",429549,11.79,90.6,3.134,0.798,3.348,98.63107,-4.188,-2.866,49.36,0,109.3,13.65,-3.45,52.6
"2010-12-17 01:04:30",429550,12.63,91.6,3.969,0.704,3.208,98.61803,-4.221,-2.913,50.53,0,109.3,13.65,-3.48,53.6
"2010-12-17 01:05:00",429551,12.82,92,4.358,0.563,3.346,98.60159,-4.263,-2.94,52.04,0,109.3,13.66,-3.53,54.0
"2010-12-17 01:05:30",429552,12.69,93.6,3.305,0.711,3.538,98.58912,-4.294,-2.991,52.29,0,109.3,13.66,-3.56,55.6
"2010-12-17 01:06:00",429553,12.06,95.6,2.645,0.648,3.516,98.57522,-4.33,-3.037,50.16,0,109.3,13.66,-3.59,57.6
"2010-12-17 01:06:30",429554,11.57,93.3,2.792,0.772,3.364,98.57182,-4.338,-3.047,49.29,0,109.3,13.66,-3.60,55.3
"2010-12-17 01:07:00",429555,11.59,91.6,3.346,0.679,3.362,98.57041,-4.342,-3.058,49.92,0,109.3,13.66,-3.61,53.6
"2010-12-17 01:07:30",429556,11.94,92,3.425,0.675,3.549,98.56786,-4.349,-3.089,49.82,0,109.3,13.66,-3.61,54.0
"2010-12-17 01:08:00",429557,11.82,92.2,3.427,0.567,3.429,98.56701,-4.351,-3.113,49.2,0,109.3,13.66,-3.61,54.2
"2010-12-17 01:08:30",429558,12.21,90.6,3.49,0.693,3.318,98.56813,-4.348,-3.093,50.23,0,109.3,13.66,-3.61,52.6
"2010-12-17 01:09:00",429559,12.11,91.9,3.342,0.658,3.531,98.56669,-4.352,-3.105,50.33,0,109.3,13.66,-3.61,53.9
"2010-12-17 01:09:30",429560,12.15,91.7,3.576,0.604,3.579,98.56753,-4.349,-3.116,50,0,109.3,13.66,-3.61,53.7
"2010-12-17 01:10:00",429561,12.24,90.1,3.858,0.393,3.389,98.56837,-4.347,-3.104,51.11,0,109.3,13.66,-3.61,52.1
"2010-12-17 01:10:30",429562,11.71,89.9,2.756,0.74,3.399,98.56808,-4.348,-3.119,51.01,0,109.3,13.66,-3.61,51.9
"2010-12-17 01:11:00",429563,11.98,88.6,3.252,0.71,3.253,98.56892,-4.346,-3.136,51.12,0,109.3,13.66,-3.61,50.6
"2010-12-17 01:11:30",429564,12.24,88.9,3.257,0.657,3.144,98.56863,-4.347,-3.142,52.91,0,109.3,13.66,-3.61,50.9
"2010-12-17 01:12:00",429565,12.77,88.6,3.615,0.401,3.271,98.5689,-4.346,-3.137,54.13,0,109.3,13.66,-3.61,50.6
"2010-12-17 01:12:30",429566,13.17,89,3.395,0.671,3.029,98.5488,-4.397,-3.142,55.86,0,109.3,13.66,-3.66,51.0
"2010-12-17 01:13:00",429567,13.04,88.8,3.662,0.61,3.25,98.5349,-4.433,-3.16,56.72,0,109.3,13.66,-3.70,50.8
"2010-12-17 01:13:30",429568,13.52,89.1,3.241,0.614,3.103,98.50796,-4.501,-3.218,57.28,0,109.3,13.66,-3.76,51.1
"2010-12-17 01:14:00",429569,13.74,88.7,3.665,0.376,3.139,98.49097,-4.544,-3.248,57.68,0,109.3,13.66,-3.81,50.7
"2010-12-17 01:14:30",429570,13.76,88.6,3.217,0.638,3.037,98.46999,-4.598,-3.295,57.92,0,109.3,13.66,-3.86,50.6
"2010-12-17 01:15:00",429571,13.65,89.2,2.704,0.725,3.029,98.45808,-4.628,-3.335,58.19,0,109.3,13.66,-3.89,51.2
"2010-12-17 01:15:30",429572,14.05,88.9,3.297,0.622,3.214,98.43737,-4.681,-3.374,58.74,0,109.3,13.65,-3.95,50.9
"2010-12-17 01:16:00",429573,13.96,89.6,3.035,0.519,3.122,98.42631,-4.709,-3.417,59.23,0,109.3,13.65,-3.97,51.6
"2010-12-17 01:16:30",429574,13.83,88.7,3.343,0.723,3.223,98.40562,-4.762,-3.443,59.26,0,109.3,13.66,-4.03,50.7
"2010-12-17 01:17:00",429575,13.88,89,4.201,0.545,3.363,98.40108,-4.773,-3.48,59.42,0,109.3,13.66,-4.04,51.0
"2010-12-17 01:17:30",429576,13.98,87.8,4.372,0.545,3.319,98.38293,-4.819,-3.515,59.53,0,109.3,13.66,-4.08,49.8
"2010-12-17 01:18:00",429577,13.74,88.7,3.206,0.575,3.334,98.36763,-4.858,-3.558,59.95,0,109.3,13.66,-4.12,50.7
"2010-12-17 01:18:30",429578,13.87,87.8,3.867,0.623,3.303,98.36734,-4.859,-3.564,59.33,0,109.3,13.66,-4.12,49.8
"2010-12-17 01:19:00",429579,13.9,87.7,3.741,0.571,3.419,98.36734,-4.859,-3.593,59.61,0,109.3,13.66,-4.12,49.7
"2010-12-17 01:19:30",429580,13.89,88.6,3.419,0.716,3.308,98.35261,-4.897,-3.619,59.88,0,109.3,13.66,-4.16,50.6
"2010-12-17 01:20:00",429581,14.01,88.7,2.808,0.603,3.196,98.34863,-4.907,-3.641,59.61,0,109.2,13.66,-4.17,50.7
"2010-12-17 01:20:30",429582,14.22,87.7,3.409,0.639,3.065,98.34042,-4.928,-3.655,60.71,0,109.3,13.66,-4.19,49.7
"2010-12-17 01:21:00",429583,14.22,87.4,3.411,0.641,3.073,98.33334,-4.946,-3.68,61.56,0,109.3,13.67,-4.21,49.4
"2010-12-17 01:21:30",429584,14.14,88.5,3.295,0.69,3.411,98.32256,-4.973,-3.71,61.43,0,109.3,13.67,-4.24,50.5
"2010-12-17 01:22:00",429585,14.11,88.7,3.631,0.383,3.341,98.31604,-4.99,-3.704,60.92,0,109.3,13.67,-4.26,50.7
"2010-12-17 01:22:30",429586,14.3,87.8,3.963,0.594,3.323,98.31321,-4.997,-3.704,61.05,0,109.3,13.67,-4.26,49.8
"2010-12-17 01:23:00",429587,14.47,86.4,3.946,0.656,3.289,98.30413,-5.02,-3.733,61.65,0,109.3,13.67,-4.29,48.4
"2010-12-17 01:23:30",429588,14.49,86,4.407,0.458,3.475,98.29932,-5.032,-3.761,61.54,0,109.3,13.67,-4.30,48.0
"2010-12-17 01:24:00",429589,14.76,86.1,3.726,0.505,3.246,98.29932,-5.032,-3.784,61.24,0,109.3,13.67,-4.30,48.1
"2010-12-17 01:24:30",429590,14.57,85.2,4.137,0.592,3.263,98.29903,-5.033,-3.771,60.83,0,109.3,13.67,-4.30,47.2
"2010-12-17 01:25:00",429591,14.79,83.5,4.37,0.578,2.958,98.28004,-5.081,-3.828,60.94,0,109.3,13.67,-4.35,45.5
"2010-12-17 01:25:30",429592,14.64,84.3,4.116,0.697,3.153,98.26559,-5.118,-3.838,61.1,0,109.3,13.67,-4.38,46.3
"2010-12-17 01:26:00",429593,14.6,84.4,3.736,0.493,3.126,98.26389,-5.123,-3.864,61.33,0,109.3,13.67,-4.39,46.4
"2010-12-17 01:26:30",429594,14.41,83.9,4.298,0.796,3.003,98.23753,-5.19,-3.851,61.93,0,109.3,13.68,-4.46,45.9
"2010-12-17 01:27:00",429595,14.73,84.1,4.265,0.405,3.078,98.23129,-5.206,-3.924,61.85,0,109.3,13.68,-4.47,46.1
"2010-12-17 01:27:30",429596,14.66,84.4,3.347,0.612,2.989,98.22505,-5.221,-3.949,61.55,0,109.3,13.68,-4.49,46.4
"2010-12-17 01:28:00",429597,14.7,84.7,2.432,0.617,2.923,98.21172,-5.255,-3.992,61.31,0,109.2,13.68,-4.52,46.7
"2010-12-17 01:28:30",429598,14.63,83.5,3.359,0.629,2.939,98.20068,-5.283,-3.996,61.05,0,109.3,13.68,-4.55,45.5
"2010-12-17 01:29:00",429599,14.48,82.1,3.86,0.598,2.857,98.19727,-5.292,-4.009,61.4,0,109.3,13.68,-4.56,44.1
"2010-12-17 01:29:30",429600,14.29,82.4,4.236,0.659,3,98.19444,-5.299,-4.034,61.53,0,109.3,13.68,-4.57,44.4
"2010-12-17 01:30:00",429601,14.37,83.8,3.746,0.586,3.208,98.17942,-5.338,-4.039,61.69,0,109.2,13.68,-4.60,45.8
"2010-12-17 01:30:30",429602,14.22,84.5,3.911,0.671,3.222,98.17886,-5.339,-4.066,60.66,0,109.3,13.67,-4.61,46.5
"2010-12-17 01:31:00",429603,14.46,84.6,3.651,0.387,3.228,98.18198,-5.331,-4.074,60.28,0,109.3,13.67,-4.60,46.6
"2010-12-17 01:31:30",429604,14.11,84.7,3.794,0.589,3.257,98.19359,-5.302,-4.077,60.33,0,109.3,13.67,-4.57,46.7
"2010-12-17 01:32:00",429605,14.21,85.2,3.484,0.505,3.13,98.197,-5.293,-4.081,60.44,0,109.3,13.66,-4.56,47.2
"2010-12-17 01:32:30",429606,14.02,85,4.149,0.534,3.266,98.197,-5.293,-4.073,60.36,0,109.3,13.67,-4.56,47.0
"2010-12-17 01:33:00",429607,13.9,84.9,4.121,0.569,3.231,98.19727,-5.292,-4.067,60.42,0,109.3,13.67,-4.56,46.9
"2010-12-17 01:33:30",429608,13.7,84.1,4.321,0.686,2.993,98.19727,-5.292,-4.075,60.81,0,109.3,13.67,-4.56,46.1
"2010-12-17 01:34:00",429609,13.97,84,4.004,0.467,3.089,98.19727,-5.292,-4.081,61.08,0,109.3,13.67,-4.56,46.0
"2010-12-17 01:34:30",429610,13.88,84.1,4.148,0.547,3.056,98.19756,-5.291,-4.065,60.97,0,109.3,13.67,-4.56,46.1
"2010-12-17 01:35:00",429611,13.89,83.6,3.657,0.672,3.014,98.19585,-5.296,-4.088,61.11,0,109.3,13.67,-4.56,45.6
"2010-12-17 01:35:30",429612,13.59,81.9,4.562,0.695,2.949,98.18395,-5.326,-4.077,61.34,0,109.3,13.67,-4.59,43.9
"2010-12-17 01:36:00",429613,13.48,82.6,2.844,0.418,2.606,98.17062,-5.36,-4.103,61.72,0,109.3,13.68,-4.63,44.6
"2010-12-17 01:36:30",429614,13.61,83,4.312,0.693,2.989,98.16354,-5.378,-4.101,61.76,0,109.3,13.68,-4.64,45.0
"2010-12-17 01:37:00",429615,13.62,82.2,3.955,0.728,2.847,98.16438,-5.376,-4.106,61.8,0,109.3,13.68,-4.64,44.2
"2010-12-17 01:37:30",429616,13.22,81,3.951,0.693,2.773,98.15955,-5.388,-4.143,61.87,0,109.3,13.68,-4.66,43.0
"2010-12-17 01:38:00",429617,13.51,81,3.407,0.659,2.777,98.14133,-5.435,-4.138,61.79,0,109.3,13.68,-4.70,43.0
"2010-12-17 01:38:30",429618,13.42,81.6,4.33,0.567,2.802,98.13648,-5.447,-4.165,61.67,0,109.3,13.68,-4.71,43.6
"2010-12-17 01:39:00",429619,13.5,81.1,4.334,0.668,2.696,98.13425,-5.453,-4.173,61.5,0,109.3,13.68,-4.72,43.1
"2010-12-17 01:39:30",429620,13.44,81.9,4.598,0.553,2.809,98.1362,-5.448,-4.196,61.66,0,109.3,13.68,-4.71,43.9
"2010-12-17 01:40:00",429621,13.06,81.4,3.721,0.641,2.496,98.1254,-5.475,-4.217,62.07,0,109.3,13.68,-4.74,43.4
"2010-12-17 01:40:30",429622,12.9,80.4,5.156,0.532,2.56,98.10751,-5.521,-4.238,62.71,0,109.3,13.68,-4.79,42.4
"2010-12-17 01:41:00",429623,13.05,82.7,4.928,0.89,2.537,98.1083,-5.519,-4.255,63.1,0,109.3,13.68,-4.79,44.7
"2010-12-17 01:41:30",429624,13.79,81.7,3.662,0.731,2.599,98.10204,-5.535,-4.299,62.34,0,109.3,13.68,-4.80,43.7
"2010-12-17 01:42:00",429625,13.52,81.6,3.031,0.792,2.364,98.09153,-5.561,-4.3,62.43,0,109.2,13.68,-4.83,43.6
"2010-12-17 01:42:30",429626,12.77,79.59,3.644,0.744,2.375,98.0816,-5.587,-4.316,62.67,0,109.3,13.68,-4.85,41.6
"2010-12-17 01:43:00",429627,13.54,79.48,3.61,0.751,2.44,98.07985,-5.591,-4.336,62.6,0,109.3,13.68,-4.86,41.5
"2010-12-17 01:43:30",429628,14.18,81,3.872,0.53,2.739,98.07846,-5.595,-4.372,61.31,0,109.3,13.68,-4.86,43.0
"2010-12-17 01:44:00",429629,14.02,80.4,4.011,0.477,2.654,98.07846,-5.595,-4.389,61.3,0,109.3,13.68,-4.86,42.4
"2010-12-17 01:44:30",429630,13.75,79.88,4.284,0.668,2.656,98.07762,-5.597,-4.385,61.81,0,109.3,13.68,-4.86,41.9
"2010-12-17 01:45:00",429631,13.53,80.5,4.266,0.911,2.638,98.07817,-5.595,-4.385,62.34,0,109.3,13.68,-4.86,42.5
"2010-12-17 01:45:30",429632,14.17,81.2,4.27,0.623,2.878,98.07761,-5.597,-4.388,62.01,0,109.3,13.69,-4.86,43.2
"2010-12-17 01:46:00",429633,14.34,80.7,3.751,0.571,2.809,98.07761,-5.597,-4.406,61.63,0,109.3,13.69,-4.86,42.7
"2010-12-17 01:46:30",429634,14.25,82.6,4.677,0.604,2.983,98.07901,-5.593,-4.402,61.34,0,109.3,13.68,-4.86,44.6
"2010-12-17 01:47:00",429635,14.21,81.1,4.312,0.596,2.892,98.08128,-5.587,-4.405,60.37,0,109.3,13.69,-4.86,43.1
"2010-12-17 01:47:30",429636,13.88,80.1,4.705,0.72,2.802,98.08466,-5.579,-4.384,61.41,0,109.3,13.68,-4.85,42.1